EW2549 Weather Reports


Display with metric or nautical units.
time (UTC)temp
F
wind
direction
speed
MPH
gust
MPH
rain 1hr
in
rain 24hr
in
rain mn
in
humidity
%
barometer
mb
20260509191559 74 94 0.0 3.0 0.00 0.00 0.00 24 1004.5
20260509190110 74 40 0.0 5.0 0.00 0.00 0.00 27 1004.6
20260509184605 75 40 0.0 2.0 0.00 0.00 0.00 24 1004.8
20260509183057 75 46 0.0 2.0 0.00 0.00 0.00 25 1005.0
20260509181556 76 5 0.0 11.0 0.00 0.00 0.00 21 1005.0
20260509174555 75 304 5.0 18.0 0.00 0.00 0.00 18 1005.2
20260509173100 75 248 6.0 15.0 0.00 0.00 0.00 18 1005.1
20260509171553 74 350 0.0 21.0 0.00 0.00 0.00 21 1005.5
20260509170100 75 251 1.0 11.0 0.00 0.00 0.00 18 1005.3
20260509164550 74 341 0.0 6.0 0.00 0.00 0.00 20 1005.4
20260509163057 73 69 0.0 0.0 0.00 0.00 0.00 20 1005.4
20260509161551 72 312 0.0 4.0 0.00 0.00 0.00 20 1005.6
20260509160039 71 342 0.0 3.0 0.00 0.00 0.00 20 1005.7
20260509154539 69 19 0.0 2.0 0.00 0.00 0.00 21 1005.7
20260509153037 68 254 1.0 9.0 0.00 0.00 0.00 22 1005.8
20260509151530 67 203 4.0 11.0 0.00 0.00 0.00 21 1006.0
20260509150026 66 333 1.0 11.0 0.00 0.00 0.00 25 1006.2
20260509144522 64 248 11.0 18.0 0.00 0.00 0.00 24 1006.2
20260509143020 60 252 11.0 17.0 0.00 0.00 0.00 32 1006.1
20260509141523 58 260 11.0 18.0 0.00 0.00 0.00 34 1006.0
20260509140015 56 265 2.0 11.0 0.00 0.00 0.00 38 1006.1
20260509134515 56 267 0.0 7.0 0.00 0.00 0.00 41 1006.2
20260509133013 55 259 1.0 6.0 0.00 0.00 0.00 43 1006.2
20260509131513 54 243 0.0 0.0 0.00 0.00 0.00 46 1006.2
20260509124510 51 279 0.0 0.0 0.00 0.00 0.00 54 1006.0
20260509123009 51 308 0.0 0.0 0.00 0.00 0.00 53 1005.7
20260509121509 52 308 0.0 0.0 0.00 0.00 0.00 50 1005.5
20260509120007 51 331 0.0 0.0 0.00 0.00 0.00 46 1005.4
20260509114519 51 333 0.0 0.0 0.00 0.00 0.00 47 1005.2
20260509113007 52 323 0.0 0.0 0.00 0.00 0.00 49 1005.0
20260509111507 52 323 0.0 0.0 0.00 0.00 0.00 47 1005.0
20260509110006 54 250 0.0 0.0 0.00 0.00 0.00 45 1004.8
20260509104505 56 250 0.0 0.0 0.00 0.00 0.00 42 1004.7
20260509103005 58 250 0.0 0.0 0.00 0.00 0.00 37 1004.7
20260509101506 58 251 0.0 0.0 0.00 0.00 0.00 37 1004.9
20260509100003 58 254 0.0 2.0 0.00 0.00 0.00 37 1005.0
20260509094604 57 243 0.0 9.0 0.00 0.00 0.00 38 1005.0
20260509093056 53 259 7.0 17.0 0.00 0.00 0.00 46 1005.0
20260509091558 48 317 0.0 0.0 0.00 0.00 0.00 70 1004.9
20260509084550 49 233 0.0 0.0 0.00 0.00 0.00 69 1004.7
20260509083052 49 233 0.0 0.0 0.00 0.00 0.00 67 1004.8
20260509081544 50 231 0.0 0.0 0.00 0.00 0.00 65 1004.8
20260509080056 50 255 0.0 0.0 0.00 0.00 0.00 64 1005.0
20260509074539 51 293 0.0 0.0 0.00 0.00 0.00 62 1005.1
20260509073032 51 293 0.0 0.0 0.00 0.00 0.00 63 1005.2
20260509071530 51 267 0.0 0.0 0.00 0.00 0.00 63 1005.4
20260509070035 52 195 0.0 0.0 0.00 0.00 0.00 63 1005.2
20260509064526 52 195 0.0 0.0 0.00 0.00 0.00 65 1005.3
20260509063024 52 195 0.0 0.0 0.00 0.00 0.00 65 1005.4
20260509061522 53 195 0.0 0.0 0.00 0.00 0.00 64 1005.7
20260509060021 53 195 0.0 0.0 0.00 0.00 0.00 63 1005.8
20260509054616 53 201 0.0 0.0 0.00 0.00 0.00 63 1005.9
20260509053024 53 201 0.0 0.0 0.00 0.00 0.00 62 1006.2
20260509051515 53 221 0.0 0.0 0.00 0.00 0.00 63 1006.4
20260509050035 54 227 0.0 0.0 0.00 0.00 0.00 63 1006.6
20260509044514 54 227 0.0 0.0 0.00 0.00 0.00 63 1006.8
20260509043026 54 227 0.0 0.0 0.00 0.00 0.00 62 1007.0
20260509041513 54 174 0.0 0.0 0.00 0.00 0.00 63 1007.3
20260509040013 55 135 0.0 0.0 0.00 0.00 0.00 62 1007.4
20260509034512 56 135 0.0 0.0 0.00 0.00 0.00 60 1007.6
20260509033017 57 135 0.0 0.0 0.00 0.00 0.00 59 1007.7
20260509031511 58 135 0.0 0.0 0.00 0.00 0.00 56 1007.5
20260509030018 59 135 0.0 0.0 0.00 0.00 0.00 51 1007.2
20260509024509 60 135 0.0 0.0 0.00 0.00 0.00 48 1007.0
20260509023009 61 135 0.0 0.0 0.00 0.00 0.00 46 1006.9
20260509021509 62 135 0.0 0.0 0.00 0.00 0.00 46 1006.8
20260509020009 63 135 0.0 0.0 0.00 0.00 0.00 44 1006.5
20260509014507 64 135 0.0 0.0 0.00 0.00 0.00 43 1006.3
20260509013007 65 135 0.0 0.0 0.00 0.00 0.00 42 1006.3
20260509011508 65 135 0.0 0.0 0.00 0.00 0.00 41 1006.2
20260509010014 67 99 0.0 0.0 0.00 0.00 0.00 39 1006.1
20260509004506 68 100 0.0 0.0 0.00 0.00 0.00 38 1006.2
20260509003005 69 105 0.0 0.0 0.00 0.00 0.00 35 1006.0
20260509001504 70 105 0.0 2.0 0.00 0.00 0.00 34 1006.1
20260509000003 70 109 0.0 3.0 0.00 0.00 0.00 36 1006.2
20260508234600 70 110 0.0 3.0 0.00 0.00 0.00 35 1006.3
20260508231559 71 182 0.0 5.0 0.00 0.00 0.00 36 1006.4
20260508230058 71 172 2.0 5.0 0.00 0.00 0.00 36 1006.4
20260508224611 71 51 0.0 3.0 0.00 0.00 0.00 37 1006.4
20260508223053 70 248 0.0 5.0 0.00 0.00 0.00 38 1006.5
20260508221557 69 97 0.0 5.0 0.00 0.00 0.00 36 1006.7
20260508220049 69 47 0.0 0.0 0.00 0.00 0.00 41 1006.8
20260508214550 69 74 0.0 0.0 0.00 0.00 0.00 39 1006.8
20260508213045 69 82 0.0 7.0 0.00 0.00 0.00 41 1007.1
20260508211548 68 70 0.0 4.0 0.00 0.00 0.00 41 1007.2
20260508210042 67 235 0.0 5.0 0.00 0.00 0.00 41 1007.4
20260508204540 68 143 0.0 4.0 0.00 0.00 0.00 40 1007.5
20260508203037 67 103 0.0 7.0 0.00 0.00 0.00 42 1007.8
20260508201538 67 61 0.0 4.0 0.00 0.00 0.00 43 1007.7
20260508200041 66 94 0.0 4.0 0.00 0.00 0.00 44 1008.1
20260508194529 65 39 0.0 4.0 0.00 0.00 0.00 44 1008.2
20260508193028 65 49 0.0 2.0 0.00 0.00 0.00 42 1008.4